Presque Isle, ME

12:15 AM EDT on July 24, 2017 (GMT -0400)
Northern Maine Regional At Presque Isle

Weather History for KPQI - November, 2013

Change the Weather History Date:

Thursday, November 7, 2013

  Actual Average Record
Temperature  
Mean Temperature 43 °F -  
Max Temperature 51 °F 44 °F 63 °F (1948)
Min Temperature 35 °F 30 °F 9 °F (1933)
Degree Days  
Heating Degree Days 22    
Moisture  
Dew Point 39 °F    
Average Humidity 78    
Maximum Humidity 87    
Minimum Humidity 60    
Precipitation  
Precipitation 0.12 in - - ()
Sea Level Pressure  
Sea Level Pressure 29.64 in    
Wind  
Wind Speed 11 mph (SW)    
Max Wind Speed 17 mph    
Max Gust Speed 23 mph    
Visibility 10 miles    
Events      
Averages and records for this station are not official NWS values.
T = Trace of Precipitation, MM = Missing Value Source: NWS Daily Summary

Daily Weather History Graph

Daily Weather History Graph

Search for Another Location

Airport or City:

Trip Planner

Search our weather history database for the weather conditions in past years. The results will help you decide how hot, cold, wet, or windy it might be!

Date:

Astronomy

Nov. 07, 2013 Rise Set
Actual Time 6:23 AM EST 4:07 PM EST
Civil Twilight 5:51 AM EST 4:40 PM EST
Nautical Twilight 5:14 AM EST 5:16 PM EST
Astronomical Twilight 4:39 AM EST 5:51 PM EST
Moon 10:32 AM EST (11/7) 8:12 PM EST (11/7)
Length of Visible Light 10h 48m
Length of Day
9h 44m
Waxing Crescent, 22% of the Moon is Illuminated
Nov 7
Waxing Crescent
Nov 10
First Quarter
Nov 17
Full
Nov 25
Last Quarter
Dec 2
New

Hourly Weather History & Observations

Time (EST) Temp. Windchill Dew Point Humidity Pressure Visibility Wind Dir Wind Speed Gust Speed Precip Events Conditions
12:15 AM 46.4 °F 41.5 °F 39.2 °F 76% 29.79 in 10.0 mi South 10.4 mph 17.3 mph N/A   Mostly Cloudy
12:35 AM 46.4 °F 41.1 °F 39.2 °F 76% 29.78 in 10.0 mi South 11.5 mph 18.4 mph N/A   Mostly Cloudy
12:55 AM 46.4 °F 41.1 °F 39.2 °F 76% 29.78 in 10.0 mi South 11.5 mph - N/A   Mostly Cloudy
1:15 AM 48.2 °F - 39.2 °F 71% 29.76 in 10.0 mi South 17.3 mph 21.9 mph N/A   Mostly Cloudy
1:35 AM 48.2 °F - 39.2 °F 71% 29.75 in 10.0 mi South 13.8 mph 17.3 mph N/A   Mostly Cloudy
1:55 AM 48.2 °F - 39.2 °F 71% 29.75 in 10.0 mi South 15.0 mph 23.0 mph N/A   Mostly Cloudy
2:15 AM 48.2 °F - 39.2 °F 71% 29.73 in 10.0 mi South 12.7 mph 23.0 mph N/A   Overcast
2:35 AM 48.2 °F - 39.2 °F 71% 29.73 in 10.0 mi South 12.7 mph 21.9 mph N/A   Overcast
2:55 AM 48.2 °F - 39.2 °F 71% 29.71 in 10.0 mi South 15.0 mph 19.6 mph N/A   Mostly Cloudy
3:15 AM 48.2 °F - 39.2 °F 71% 29.71 in 10.0 mi South 16.1 mph - N/A   Overcast
3:35 AM 46.4 °F 40.7 °F 41.0 °F 81% 29.70 in 10.0 mi South 12.7 mph 19.6 mph N/A   Overcast
3:55 AM 46.4 °F 41.5 °F 41.0 °F 81% 29.69 in 10.0 mi South 10.4 mph - N/A   Overcast
4:15 AM 46.4 °F 41.1 °F 41.0 °F 81% 29.69 in 10.0 mi South 11.5 mph - 0.01 in   Overcast
4:35 AM 46.4 °F 41.1 °F 41.0 °F 81% 29.68 in 10.0 mi South 11.5 mph - 0.01 in   Overcast
4:55 AM 46.4 °F 41.5 °F 42.8 °F 87% 29.67 in 10.0 mi South 10.4 mph - 0.01 in   Overcast
5:15 AM 46.4 °F 41.5 °F 42.8 °F 87% 29.66 in 10.0 mi South 10.4 mph - 0.01 in   Overcast
5:35 AM 46.4 °F 41.1 °F 42.8 °F 87% 29.65 in 10.0 mi South 11.5 mph - 0.01 in   Overcast
5:55 AM 46.4 °F 41.5 °F 42.8 °F 87% 29.66 in 10.0 mi SSW 10.4 mph - 0.01 in   Overcast
6:15 AM 46.4 °F 41.5 °F 42.8 °F 87% 29.65 in 10.0 mi South 10.4 mph - 0.01 in   Overcast
6:35 AM 46.4 °F 41.9 °F 42.8 °F 87% 29.64 in 10.0 mi South 9.2 mph - 0.01 in   Overcast
6:55 AM 48.2 °F - 42.8 °F 82% 29.63 in 10.0 mi South 11.5 mph - 0.01 in   Overcast
7:15 AM 48.2 °F - 42.8 °F 82% 29.63 in 10.0 mi South 13.8 mph - N/A   Overcast
7:35 AM 48.2 °F - 42.8 °F 82% 29.62 in 10.0 mi South 10.4 mph - N/A   Mostly Cloudy
7:55 AM 48.2 °F - 42.8 °F 82% 29.61 in 10.0 mi South 10.4 mph - N/A   Overcast
8:15 AM 48.2 °F - 42.8 °F 82% 29.60 in 10.0 mi South 11.5 mph - N/A   Overcast
8:35 AM 48.2 °F - 42.8 °F 82% 29.60 in 10.0 mi South 9.2 mph - N/A   Mostly Cloudy
8:55 AM 48.2 °F - 44.6 °F 87% 29.60 in 10.0 mi South 12.7 mph - N/A   Mostly Cloudy
9:15 AM 48.2 °F - 44.6 °F 87% 29.60 in 10.0 mi South 11.5 mph - N/A   Overcast
9:35 AM 48.2 °F - 44.6 °F 87% 29.59 in 10.0 mi South 11.5 mph - N/A   Mostly Cloudy
9:55 AM 50.0 °F - 44.6 °F 82% 29.59 in 10.0 mi South 11.5 mph - N/A   Overcast
10:15 AM 50.0 °F - 44.6 °F 82% 29.59 in 10.0 mi South 9.2 mph - 0.01 in   Overcast
10:35 AM 50.0 °F - 44.6 °F 82% 29.59 in 10.0 mi SSW 9.2 mph - 0.01 in   Overcast
10:55 AM 50.0 °F - 44.6 °F 82% 29.58 in 10.0 mi SSW 9.2 mph 16.1 mph 0.02 in   Overcast
11:15 AM 50.0 °F - 46.4 °F 87% 29.58 in 10.0 mi SSW 10.4 mph - 0.02 in   Mostly Cloudy
11:35 AM 50.0 °F - 46.4 °F 87% 29.57 in 10.0 mi SW 4.6 mph - 0.04 in   Overcast
11:55 AM 50.0 °F - 46.4 °F 87% 29.56 in 10.0 mi SSW 8.1 mph - 0.04 in   Overcast
12:15 PM 51.8 °F - 46.4 °F 82% 29.55 in 8.0 mi SSW 6.9 mph - 0.01 in   Overcast
12:35 PM 51.8 °F - 46.4 °F 82% 29.55 in 10.0 mi SSW 9.2 mph - 0.01 in   Overcast
12:55 PM 51.8 °F - 46.4 °F 82% 29.55 in 10.0 mi SW 10.4 mph - 0.01 in   Overcast
1:15 PM 51.8 °F - 46.4 °F 82% 29.56 in 10.0 mi WSW 9.2 mph 16.1 mph N/A   Overcast
1:35 PM 51.8 °F - 46.4 °F 82% 29.57 in 8.0 mi WSW 9.2 mph 17.3 mph 0.01 in   Mostly Cloudy
1:55 PM 50.0 °F - 46.4 °F 87% 29.57 in 10.0 mi WSW 5.8 mph - 0.02 in   Mostly Cloudy
2:15 PM 50.0 °F - 44.6 °F 82% 29.56 in 10.0 mi West 10.4 mph - N/A   Overcast
2:35 PM 50.0 °F - 42.8 °F 76% 29.56 in 10.0 mi West 5.8 mph - N/A   Mostly Cloudy
2:55 PM 48.2 °F - 42.8 °F 82% 29.56 in 10.0 mi WSW 5.8 mph - N/A   Overcast
3:15 PM 48.2 °F - 42.8 °F 82% 29.56 in 10.0 mi WSW 4.6 mph - N/A   Overcast
3:35 PM 48.2 °F - 39.2 °F 71% 29.57 in 10.0 mi WSW 8.1 mph - N/A   Overcast
3:55 PM 46.4 °F 42.4 °F 37.4 °F 71% 29.57 in 10.0 mi West 8.1 mph - N/A   Overcast
4:15 PM 46.4 °F 41.1 °F 37.4 °F 71% 29.59 in 10.0 mi West 11.5 mph - N/A   Overcast
4:35 PM 44.6 °F 38.8 °F 37.4 °F 76% 29.59 in 10.0 mi West 11.5 mph - N/A   Overcast
4:55 PM 44.6 °F 38.8 °F 37.4 °F 76% 29.61 in 10.0 mi West 11.5 mph - N/A   Mostly Cloudy
5:15 PM 44.6 °F 40.2 °F 37.4 °F 76% 29.61 in 10.0 mi West 8.1 mph - N/A   Mostly Cloudy
5:35 PM 42.8 °F 37.5 °F 35.6 °F 76% 29.60 in 10.0 mi West 9.2 mph - N/A   Overcast
5:55 PM 42.8 °F 38.0 °F 35.6 °F 76% 29.61 in 10.0 mi West 8.1 mph - N/A   Overcast
6:15 PM 42.8 °F 37.5 °F 35.6 °F 76% 29.62 in 10.0 mi West 9.2 mph - N/A   Overcast
6:35 PM 41.0 °F 33.9 °F 33.8 °F 76% 29.63 in 10.0 mi West 12.7 mph 17.3 mph N/A   Mostly Cloudy
6:55 PM 41.0 °F 34.7 °F 33.8 °F 76% 29.64 in 10.0 mi West 10.4 mph - N/A   Mostly Cloudy
7:15 PM 39.2 °F 31.6 °F 32.0 °F 75% 29.65 in 10.0 mi West 12.7 mph - N/A   Overcast
7:35 PM 39.2 °F 33.6 °F 32.0 °F 75% 29.66 in 10.0 mi West 8.1 mph - N/A   Overcast
7:55 PM 39.2 °F 34.2 °F 30.2 °F 70% 29.66 in 10.0 mi West 6.9 mph - N/A   Overcast
8:15 PM 39.2 °F 33.0 °F 30.2 °F 70% 29.67 in 10.0 mi West 9.2 mph - N/A   Overcast
8:35 PM 39.2 °F 33.0 °F 30.2 °F 70% 29.66 in 10.0 mi West 9.2 mph - N/A   Overcast
8:55 PM 37.4 °F 32.8 °F 30.2 °F 75% 29.66 in 10.0 mi West 5.8 mph - N/A   Overcast
9:15 PM 37.4 °F 32.1 °F 30.2 °F 75% 29.67 in 10.0 mi West 6.9 mph - N/A   Overcast
9:35 PM 37.4 °F 32.8 °F 28.4 °F 70% 29.67 in 10.0 mi WNW 5.8 mph - N/A   Overcast
9:55 PM 37.4 °F 31.4 °F 30.2 °F 75% 29.66 in 10.0 mi WNW 8.1 mph - N/A   Overcast
10:15 PM 37.4 °F 32.1 °F 28.4 °F 70% 29.65 in 10.0 mi NW 6.9 mph - N/A   Overcast
10:35 PM 37.4 °F 33.8 °F 28.4 °F 70% 29.65 in 10.0 mi NW 4.6 mph - N/A   Overcast
10:55 PM 37.4 °F 32.8 °F 28.4 °F 70% 29.64 in 10.0 mi NNW 5.8 mph - N/A   Overcast
11:15 PM 37.4 °F 32.1 °F 26.6 °F 65% 29.64 in 10.0 mi NW 6.9 mph - N/A   Overcast
11:35 PM 35.6 °F 29.2 °F 26.6 °F 70% 29.64 in 10.0 mi WNW 8.1 mph - N/A   Overcast
11:55 PM 37.4 °F 32.8 °F 24.8 °F 60% 29.63 in 10.0 mi WNW 5.8 mph - N/A   Overcast